Weather History for KOWB - September, 2013

Change the Weather History Date:

Tuesday, September 3, 2013

  Actual Average Record
Temperature  
Mean Temperature 74 °F -  
Max Temperature 81 °F 86 °F 100 °F (1953)
Min Temperature 66 °F 63 °F 48 °F (1952)
Cooling Degree Days 8    
Growing Degree Days 24 (Base 50)    
Moisture  
Dew Point 63 °F    
Average Humidity 72    
Maximum Humidity 93    
Minimum Humidity 52    
Precipitation  
Precipitation 0.00 in - - ()
Sea Level Pressure  
Sea Level Pressure 30.00 in    
Wind  
Wind Speed 5 mph (NNE)    
Max Wind Speed 13 mph    
Max Gust Speed -    
Visibility 10 miles    
Events      
Averages and records for this station are not official NWS values.
T = Trace of Precipitation, MM = Missing Value Source: NWS Daily Summary

Daily Weather History Graph

Daily Weather History Graph

Search for Another Location

Airport or City:

Trip Planner

Search our weather history database for the weather conditions in past years. The results will help you decide how hot, cold, wet, or windy it might be!

Date:

Astronomy

Sep. 03, 2013 Rise Set
Actual Time 6:20 AM CDT 7:14 PM CDT
Civil Twilight 5:53 AM CDT 7:41 PM CDT
Nautical Twilight 5:22 AM CDT 8:12 PM CDT
Astronomical Twilight 4:49 AM CDT 8:45 PM CDT
Moon 4:35 AM CDT (9/3) 6:01 PM CDT (9/3)
Length of Visible Light 13h 47m
Length of Day
12h 53m
Waning Crescent, 3% of the Moon is Illuminated
Sep 3
Waning Crescent
Sep 5
New
Sep 12
First Quarter
Sep 19
Full
Sep 26
Last Quarter

Hourly Weather History & Observations

Time (CDT) Temp. Heat Index Dew Point Humidity Pressure Visibility Wind Dir Wind Speed Gust Speed Precip Events Conditions
12:56 AM 70.9 °F - 65.8 °F 84% 29.91 in 10.0 mi NNW 3.5 mph - N/A   Scattered Clouds
1:56 AM 70.0 °F - 65.8 °F 87% 29.91 in 10.0 mi NW 3.5 mph - N/A   Clear
2:56 AM 68.0 °F - 65.8 °F 93% 29.93 in 10.0 mi Calm Calm - N/A   Clear
3:56 AM 68.0 °F - 64.9 °F 90% 29.94 in 10.0 mi North 3.5 mph - N/A   Partly Cloudy
4:56 AM 66.9 °F - 64.9 °F 93% 29.95 in 10.0 mi Calm Calm - N/A   Partly Cloudy
5:56 AM 68.0 °F - 63.9 °F 87% 29.96 in 7.0 mi NNE 5.8 mph - N/A   Mostly Cloudy
6:56 AM 66.9 °F - 63.0 °F 87% 29.99 in 10.0 mi NE 8.1 mph - N/A   Scattered Clouds
7:56 AM 66.9 °F - 63.0 °F 87% 30.02 in 10.0 mi NE 9.2 mph - N/A   Mostly Cloudy
8:56 AM 70.0 °F - 63.0 °F 78% 30.03 in 10.0 mi NE 10.4 mph - N/A   Partly Cloudy
9:56 AM 72.0 °F - 63.0 °F 73% 30.04 in 10.0 mi NNE 9.2 mph - N/A   Partly Cloudy
10:56 AM 73.9 °F - 63.0 °F 68% 30.04 in 10.0 mi NNE 9.2 mph - N/A   Clear
11:56 AM 75.9 °F - 63.0 °F 64% 30.03 in 10.0 mi ENE 4.6 mph - N/A   Partly Cloudy
12:56 PM 79.0 °F - 63.0 °F 58% 30.02 in 10.0 mi Variable 4.6 mph - N/A   Partly Cloudy
1:56 PM 79.0 °F - 63.0 °F 58% 30.01 in 10.0 mi Variable 6.9 mph - N/A   Mostly Cloudy
2:56 PM 81.0 °F 82.5 °F 63.9 °F 56% 30.00 in 10.0 mi NNW 12.7 mph - N/A   Mostly Cloudy
3:56 PM 79.9 °F - 63.0 °F 56% 30.00 in 10.0 mi NNE 9.2 mph - N/A   Partly Cloudy
4:56 PM 79.9 °F - 61.0 °F 52% 30.00 in 10.0 mi North 8.1 mph - N/A   Scattered Clouds
5:56 PM 77.9 °F - 61.0 °F 56% 30.00 in 10.0 mi NNW 8.1 mph - N/A   Partly Cloudy
6:56 PM 75.9 °F - 61.0 °F 60% 30.00 in 10.0 mi North 4.6 mph - 0.00 in   Clear
7:56 PM 73.9 °F - 61.9 °F 66% 30.01 in 10.0 mi North 4.6 mph - N/A   Partly Cloudy
8:56 PM 72.0 °F - 61.0 °F 68% 30.03 in 10.0 mi NNE 4.6 mph - N/A   Clear
9:56 PM 70.0 °F - 59.9 °F 70% 30.05 in 10.0 mi NNE 4.6 mph - N/A   Clear
10:56 PM 68.0 °F - 57.9 °F 70% 30.06 in 10.0 mi ENE 5.8 mph - N/A   Clear
11:56 PM 68.0 °F - 59.0 °F 73% 30.07 in 10.0 mi NNE 4.6 mph - N/A   Clear